User: anonymous   Login
Location: Unspecified
(0.0000°N, 0.0000°E)
Time: 17:32:02
(UTC+02:00)
Language:

ARIANE 5 R/B - Orbit

View from above orbital plane
View from above orbital plane
View from above satellite
View from above satellite

Ground track
Ground track

The orbit data is extracted from the following two-line orbital elements,

1 28787U 05028B   17231.31934769 +.00000073 +00000-0 +99842-3 0  9998
2 28787 007.4493 013.5233 7162550 247.1853 083.0733 02.26564610099525
Epoch (UTC): 19 August 2017 07:39:51
Eccentricity: 0.7162550
inclination: 7.4493°
perigee height: 570 km
apogee height: 35648 km
right ascension of ascending node: 13.5233°
argument of perigee: 247.1853°
revolutions per day: 2.26564610
mean anomaly at epoch: 83.0733°
orbit number at epoch: 9952

The dashed part of the orbit path shows where the satellite is in the earth's shadow,  

DLR